[[{"header":{"parameterUnit":"m.s-1","parameterCategory":2,"la1":30.2991,"la2":30.254,"lo1":-89.0895,"lo2":-89.0444,"dy":0.0017,"dx":0.0017,"nx":28,"ny":28,"refTime":"2025-03-20T09:00:00:Z","depth":"0","parameterNumber":2,"parameterNumberName":"U-component_of_CURRENTS"},"data":[0,0,0,0,0,0,0,0,0,0,0,0,0,0,0,0,0,0,0,0,0,0,0,0,0,0,0,0,0,0,0,0,0,0,0,0,0,0,0,0,0,0,0,0,0,0,0,0,0,0,0,0,0,0,0,0,0,0,0.2204,0.2204,0,0.2256,0.2257,0.2257,0.2282,0.2282,0.2283,0.2283,0.2255,0.2255,0.2254,0,0,0,0,0,0,0,0,0,0,0,0,0,0.2097,0.2099,0.2204,0.2205,0.2205,0.2256,0.2257,0.2257,0.2282,0.2283,0.2283,0.2283,0.2256,0.2255,0.2254,0,0,0,0,0,0,0,0,0,0,0,0,0,0.2145,0.21,0.2204,0.2225,0.2228,0.2256,0.2257,0.2257,0.2282,0.2283,0.2283,0.2283,0.2256,0.2255,0.2254,0.2242,0,0,0.225,0.2249,0,0,0,0,0,0,0,0,0.2142,0.2148,0.2221,0.2224,0.2227,0.2264,0.2209,0.2249,0.2282,0.226,0.2283,0.2283,0.2252,0.2251,0.2259,0.2241,0.224,0.225,0.2249,0.2248,0.2248,0,0,0,0,0,0,0,0.2139,0.2146,0.2223,0.2222,0.2225,0.2222,0.2229,0.2217,0.2252,0.2262,0.2264,0.2272,0.2252,0.2261,0.2259,0.2239,0.225,0.2249,0.2248,0.2247,0.2205,0.2204,0,0,0,0,0,0,0.2137,0.2143,0.2221,0.2225,0.2185,0.2224,0.2232,0.2251,0.2254,0.2255,0.2272,0.2273,0.2263,0.226,0.2258,0.2247,0.2248,0.2247,0.2246,0.2205,0.2205,0.2204,0,0,0,0,0,0,0.2134,0.2144,0.2219,0.2185,0.2195,0.2226,0.2247,0.2252,0.2261,0.2263,0.2262,0.2277,0.2263,0.2259,0.2252,0.2246,0.2247,0.2245,0.2206,0.2205,0.2204,0.2223,0,0,0,0,0,0,0.2131,0.2143,0.2153,0.2186,0.2197,0.2238,0.2247,0.2253,0.2266,0.2268,0.2266,0.2264,0.2263,0.2254,0.225,0.2244,0.2244,0.2206,0.2205,0.2205,0.2223,0.2223,0.2223,0,0,0,0,0,0.2128,0.2137,0.2154,0.2163,0.2212,0.2238,0.2243,0.2264,0.2266,0.2272,0.2272,0.2264,0.2246,0.2253,0.2249,0.2242,0.2206,0.2205,0.2205,0.2223,0.2223,0.2223,0,0,0,0,0,0,0.2088,0.2141,0.216,0.2184,0.2212,0.2243,0.2248,0.2262,0.2268,0.2264,0.2263,0.2261,0.2253,0.2241,0.2248,0.2226,0.2223,0.2221,0.2238,0.2238,0.2238,0.2241,0.2243,0,0,0,0,0,0.2087,0.2112,0.2157,0.2173,0.2189,0.2218,0.223,0.2246,0.2257,0.2261,0.2263,0.2255,0.2246,0.2238,0.2232,0.2218,0.2238,0.2209,0.2209,0.2209,0.2208,0.2248,0.2252,0.2201,0.2201,0.2201,0,0,0.2074,0.2107,0.212,0.2167,0.2189,0.2202,0.2225,0.2243,0.2246,0.2254,0.2253,0.2258,0.2244,0.2237,0.223,0.2226,0.2235,0.2208,0.2209,0.2208,0.2248,0.2253,0.2258,0.2201,0.2201,0.2201,0,0,0.2053,0.2092,0.2104,0.2129,0.2166,0.2186,0.2191,0.2226,0.2236,0.2239,0.2246,0.2253,0.2234,0.2237,0.2229,0.2223,0.2239,0.2213,0.2212,0.2251,0.2256,0.2261,0.2302,0.231,0.2208,0.2208,0.2208,0,0.2032,0.2061,0.2107,0.2121,0.2137,0.2176,0.2183,0.2197,0.2222,0.2237,0.2235,0.2246,0.2234,0.2236,0.2231,0.2224,0.2252,0.2216,0.2254,0.2259,0.2264,0.2304,0.2313,0.2209,0.2209,0.2209,0.2209,0,0.202,0.2043,0.2048,0.2085,0.2107,0.2118,0.2152,0.2172,0.2187,0.2209,0.2228,0.2232,0.2245,0.2235,0.2225,0.2248,0.2261,0.2258,0.226,0.227,0.2312,0.2321,0.221,0.221,0.2209,0.2209,0,0,0.1969,0.203,0.2029,0.2055,0.2091,0.2115,0.2121,0.2156,0.2186,0.2198,0.2237,0.2218,0.2249,0.2242,0.2246,0.2265,0.2319,0.2271,0.2273,0.2322,0.2416,0.2432,0.2444,0.2332,0.2333,0.2334,0.2436,0,0.1943,0.197,0.1999,0.202,0.2045,0.2086,0.2101,0.2138,0.2174,0.2224,0.2236,0.2271,0.2241,0.2269,0.228,0.2322,0.2342,0.2292,0.2387,0.239,0.2413,0.2454,0.2439,0.2529,0.2445,0.2446,0.2447,0,0.1921,0.1949,0.1968,0.203,0.2043,0.2056,0.2123,0.2142,0.2209,0.2243,0.2281,0.2314,0.2347,0.2325,0.2388,0.2363,0.2383,0.2404,0.2409,0.2423,0.2423,0.2501,0.2548,0.2536,0.2461,0.246,0.2459,0,0.1894,0.1929,0.1951,0.1968,0.2033,0.2052,0.2083,0.215,0.2207,0.2274,0.2341,0.2369,0.2426,0.2442,0.2478,0.2446,0.256,0.2526,0.2555,0.2557,0.256,0.256,0.2615,0.2565,0.2565,0.2564,0.2564,0,0.1874,0.1899,0.1946,0.1966,0.2011,0.2049,0.2114,0.2157,0.2248,0.232,0.2359,0.2436,0.2462,0.2529,0.2522,0.2584,0.26,0.2571,0.259,0.2566,0.2565,0.2565,0.2547,0.2568,0.2567,0.2567,0.2566,0,0.1877,0.1893,0.1938,0.199,0.2009,0.2051,0.2152,0.2204,0.2287,0.2389,0.2421,0.2528,0.2604,0.2635,0.269,0.2672,0.2663,0.2717,0.269,0.2703,0.2692,0.2675,0.2605,0.2515,0.2765,0.2766,0.2767,0,0.1897,0.1913,0.1964,0.1987,0.2016,0.208,0.2123,0.2214,0.2279,0.2437,0.2486,0.2613,0.2684,0.2797,0.28,0.2827,0.2717,0.2811,0.2729,0.2707,0.2702,0.2551,0.2466,0.2747,0.2747,0.2748,0.2748,0,0.1939,0.1944,0.1971,0.2009,0.2047,0.2102,0.2168,0.2236,0.2333,0.243,0.2543,0.2623,0.2764,0.2805,0.2868,0.2867,0.272,0.2822,0.2811,0.2706,0.2533,0.2451,0.2665,0.2753,0.2753,0.2752,0.2752,0.2752,0.1964,0.198,0.1987,0.2022,0.2058,0.2083,0.21,0.2184,0.2274,0.2379,0.2509,0.2608,0.2781,0.2882,0.2858,0.2874,0.276,0.2817,0.2807,0.2659,0.254,0.2765,0.2862,0.2862,0.2862,0.2862,0.2862,0,0.1967,0.1962,0.1998,0.1999,0.2001,0.2035,0.2091,0.209,0.2138,0.2306,0.2397,0.2616,0.2738,0.2839,0.2963,0.2899,0.2701,0.2826,0.2623,0.2542,0.2789,0.2759,0.2824,0.2824,0.2824,0.2824,0.2824,0.2824,0.1957,0.1948,0.1948,0.1918,0.192,0.1879,0.1882,0.1905,0.2002,0.214,0.2277,0.2431,0.2783,0.3051,0.3077,0.2976,0.272,0.2624,0.2533,0.2771,0.2768,0.2765,0.2733,0.2791,0.2791,0.2187,0.2183,0.218]},{"header":{"parameterUnit":"m.s-1","parameterCategory":2,"la1":30.2991,"la2":30.254,"lo1":-89.0895,"lo2":-89.0444,"dy":0.0017,"dx":0.0017,"nx":28,"ny":28,"refTime":"2025-03-20T09:00:00:Z","depth":"0","parameterNumber":3,"parameterNumberName":"V-component_of_CURRENTS"},"data":[0,0,0,0,0,0,0,0,0,0,0,0,0,0,0,0,0,0,0,0,0,0,0,0,0,0,0,0,0,0,0,0,0,0,0,0,0,0,0,0,0,0,0,0,0,0,0,0,0,0,0,0,0,0,0,0,0,0,-0.0103,-0.0104,0,-0.0178,-0.0179,-0.018,-0.0255,-0.0256,-0.0256,-0.0257,-0.034,-0.0342,-0.0343,0,0,0,0,0,0,0,0,0,0,0,0,0,-0.0081,-0.0081,-0.0103,-0.0104,-0.0104,-0.0178,-0.0179,-0.0181,-0.0255,-0.0256,-0.0257,-0.0257,-0.0339,-0.0341,-0.0343,0,0,0,0,0,0,0,0,0,0,0,0,0,-0.012,-0.0081,-0.0103,-0.0148,-0.0152,-0.0178,-0.0179,-0.0181,-0.0255,-0.0256,-0.0257,-0.0258,-0.0339,-0.0341,-0.0344,-0.0339,0,0,-0.0351,-0.0352,0,0,0,0,0,0,0,0,-0.0118,-0.0121,-0.0141,-0.0145,-0.015,-0.0205,-0.0202,-0.0233,-0.0254,-0.022,-0.0257,-0.0258,-0.0292,-0.0299,-0.0316,-0.0343,-0.0346,-0.0351,-0.0353,-0.0354,-0.0354,0,0,0,0,0,0,0,-0.0115,-0.0119,-0.0137,-0.0141,-0.0147,-0.0183,-0.0189,-0.0208,-0.0253,-0.0223,-0.0227,-0.023,-0.0296,-0.0313,-0.0318,-0.0347,-0.0351,-0.0353,-0.0355,-0.0356,-0.0384,-0.0383,0,0,0,0,0,0,-0.0094,-0.0115,-0.0134,-0.0139,-0.0131,-0.0182,-0.0189,-0.0189,-0.0252,-0.0262,-0.0229,-0.0233,-0.0309,-0.0315,-0.0321,-0.0318,-0.0354,-0.0356,-0.0357,-0.0385,-0.0384,-0.0383,0,0,0,0,0,0,-0.0093,-0.0095,-0.0131,-0.0126,-0.0133,-0.018,-0.018,-0.019,-0.0207,-0.0256,-0.0267,-0.0235,-0.031,-0.0318,-0.0336,-0.0322,-0.0357,-0.0359,-0.0385,-0.0384,-0.0383,-0.0311,0,0,0,0,0,0,-0.0092,-0.0094,-0.0087,-0.0124,-0.0132,-0.0137,-0.0179,-0.0191,-0.0205,-0.0211,-0.0264,-0.0274,-0.0311,-0.0332,-0.0338,-0.0326,-0.0361,-0.0386,-0.0385,-0.0384,-0.0315,-0.0308,-0.0302,0,0,0,0,0,-0.0091,-0.0073,-0.0087,-0.0089,-0.0121,-0.0135,-0.0143,-0.0183,-0.0204,-0.0204,-0.0243,-0.0272,-0.0329,-0.0333,-0.0341,-0.0328,-0.0387,-0.0385,-0.0384,-0.0317,-0.0309,-0.0303,0,0,0,0,0,0,-0.0058,-0.0079,-0.0095,-0.0085,-0.0104,-0.0146,-0.0148,-0.0173,-0.0205,-0.0211,-0.0263,-0.0274,-0.0286,-0.0313,-0.0317,-0.0333,-0.0362,-0.0362,-0.0309,-0.0302,-0.0296,-0.0283,-0.0363,0,0,0,0,0,-0.0046,-0.0041,-0.0067,-0.0059,-0.0064,-0.0104,-0.0115,-0.0139,-0.017,-0.0186,-0.0221,-0.0257,-0.0285,-0.0298,-0.0327,-0.0329,-0.0364,-0.0327,-0.032,-0.0315,-0.031,-0.0353,-0.035,-0.0378,-0.0378,-0.0378,0,0,-0.0033,-0.0041,-0.004,-0.0052,-0.0072,-0.0069,-0.0114,-0.0121,-0.0122,-0.0187,-0.0198,-0.0236,-0.0281,-0.0293,-0.03,-0.0313,-0.0323,-0.0313,-0.0308,-0.0306,-0.0351,-0.0349,-0.0346,-0.0377,-0.0377,-0.0377,0,0,0.0003,-0.0008,0.0008,-0.0001,-0.0017,-0.0039,-0.0035,-0.0069,-0.0088,-0.0098,-0.0149,-0.0177,-0.0212,-0.0247,-0.0268,-0.0241,-0.0291,-0.0248,-0.0206,-0.0247,-0.0246,-0.0244,-0.0275,-0.0277,-0.0243,-0.0243,-0.0243,0,0.0022,0.0037,0.0011,0.0026,0.0025,-0.0018,-0.0002,-0.0022,-0.0058,-0.007,-0.0089,-0.0154,-0.0191,-0.0214,-0.0209,-0.0227,-0.0258,-0.023,-0.0239,-0.0239,-0.0239,-0.0271,-0.0275,-0.024,-0.024,-0.024,-0.0241,0,0.0067,0.0078,0.009,0.0093,0.0089,0.0097,0.0071,0.0062,0.0036,0.0009,-0.0018,-0.0074,-0.0114,-0.0128,-0.0161,-0.0177,-0.02,-0.0228,-0.0257,-0.0232,-0.0267,-0.0272,-0.0234,-0.0236,-0.0237,-0.0238,0,0,0.0107,0.0119,0.0123,0.0134,0.0124,0.0127,0.0131,0.0118,0.0118,0.0078,0.0071,0.0018,-0.0022,-0.0048,-0.0096,-0.013,-0.0155,-0.0172,-0.0176,-0.02,-0.0241,-0.0254,-0.0261,-0.0188,-0.0189,-0.0189,-0.0262,0,0.0149,0.0193,0.0185,0.022,0.0237,0.0206,0.0215,0.0196,0.0169,0.0153,0.0089,0.0065,0.0012,-0.0006,-0.0049,-0.0131,-0.0166,-0.0132,-0.0264,-0.0267,-0.0281,-0.0266,-0.0265,-0.033,-0.0267,-0.0268,-0.0269,0,0.0193,0.0216,0.026,0.0281,0.0286,0.0298,0.0296,0.0298,0.026,0.0239,0.0195,0.0145,0.0089,0.0043,-0.008,-0.0058,-0.0139,-0.0203,-0.0208,-0.0249,-0.029,-0.0347,-0.0342,-0.0514,-0.0277,-0.0276,-0.0275,0,0.0229,0.0268,0.0305,0.0312,0.0328,0.0338,0.0341,0.032,0.0334,0.0289,0.0293,0.0205,0.0173,0.0059,-0.0069,-0.0078,-0.0205,-0.0238,-0.0326,-0.0328,-0.0367,-0.0371,-0.0542,-0.0323,-0.0323,-0.0323,-0.0322,0,0.027,0.0298,0.0325,0.0344,0.0391,0.038,0.0418,0.0402,0.0399,0.0428,0.0339,0.0342,0.0175,0.0086,-0.0045,-0.0194,-0.0191,-0.0314,-0.0348,-0.034,-0.0341,-0.0525,-0.0635,-0.0325,-0.0325,-0.0324,-0.0324,0,0.0293,0.0311,0.0361,0.0395,0.0408,0.0438,0.0484,0.0515,0.0494,0.0528,0.0523,0.0444,0.0325,0.0158,-0.0027,-0.0151,-0.0406,-0.0356,-0.0328,-0.0356,-0.0595,-0.07,-0.0915,-0.0989,-0.0464,-0.0465,-0.0465,0,0.0301,0.033,0.0403,0.0445,0.046,0.0508,0.055,0.0558,0.0606,0.06,0.0632,0.0529,0.0484,0.0207,-0.0041,-0.0275,-0.0441,-0.0429,-0.0449,-0.0607,-0.0749,-0.0821,-0.0873,-0.0473,-0.0473,-0.0474,-0.0474,0,0.0322,0.0355,0.0406,0.0499,0.0557,0.0631,0.0694,0.0752,0.0772,0.0801,0.0825,0.0784,0.0516,0.0285,-0.0046,-0.0225,-0.0565,-0.0447,-0.0629,-0.0783,-0.0857,-0.0943,-0.0422,-0.0479,-0.0478,-0.0478,-0.0478,-0.0478,0.0344,0.0393,0.0477,0.0565,0.0645,0.0751,0.083,0.0905,0.0993,0.1064,0.0997,0.0974,0.0605,0.0155,-0.012,-0.061,-0.0617,-0.0747,-0.0863,-0.0921,-0.0994,-0.0472,-0.0555,-0.0555,-0.0555,-0.0555,-0.0555,0,0.0377,0.0446,0.0536,0.0659,0.0768,0.0795,0.0934,0.1024,0.1147,0.1202,0.1224,0.1027,0.0569,0.0095,-0.0561,-0.0932,-0.1074,-0.1155,-0.1271,-0.1304,-0.0856,-0.0856,-0.0985,-0.0985,-0.0985,-0.0984,-0.0984,-0.0984,0.04,0.05,0.0558,0.0746,0.0837,0.0995,0.1087,0.1207,0.1294,0.1377,0.1369,0.1317,0.0943,-0.0284,-0.1128,-0.1345,-0.1624,-0.1705,-0.183,-0.1544,-0.1514,-0.1486,-0.1511,-0.1776,-0.1777,-0.221,-0.2214,-0.2218]}],[{"header":{"parameterUnit":"m.s-1","parameterCategory":2,"la1":30.2991,"la2":30.254,"lo1":-89.0895,"lo2":-89.0444,"dy":0.0017,"dx":0.0017,"nx":28,"ny":28,"refTime":"2025-03-20T09:00:00:Z","depth":"2","parameterNumber":2,"parameterNumberName":"U-component_of_CURRENTS"},"data":[0,0,0,0,0,0,0,0,0,0,0,0,0,0,0,0,0,0,0,0,0,0,0,0,0,0,0,0,0,0,0,0,0,0,0,0,0,0,0,0,0,0,0,0,0,0,0,0,0,0,0,0,0,0,0,0,0,0,0.209,0.209,0,0.2131,0.2132,0.2132,0.2164,0.2165,0.2165,0.2166,0.215,0.2149,0.2148,0,0,0,0,0,0,0,0,0,0,0,0,0,0.1992,0.1994,0.209,0.2091,0.2091,0.2131,0.2132,0.2132,0.2164,0.2165,0.2166,0.2166,0.215,0.2149,0.2148,0,0,0,0,0,0,0,0,0,0,0,0,0,0.2032,0.1994,0.209,0.2114,0.2116,0.2131,0.2132,0.2132,0.2164,0.2165,0.2166,0.2166,0.215,0.2149,0.2148,0.2125,0,0,0.2144,0.2143,0,0,0,0,0,0,0,0,0.203,0.2036,0.2109,0.2112,0.2115,0.2145,0.2092,0.2128,0.2164,0.2144,0.2166,0.2167,0.2143,0.2143,0.2147,0.2124,0.2123,0.2143,0.2143,0.2142,0.2142,0,0,0,0,0,0,0,0.2027,0.2034,0.2104,0.211,0.2114,0.2106,0.2113,0.2098,0.2136,0.2146,0.2149,0.2156,0.2144,0.2148,0.2147,0.2123,0.2143,0.2142,0.2141,0.2141,0.2098,0.2098,0,0,0,0,0,0,0.2028,0.2032,0.2103,0.2106,0.2076,0.2108,0.2115,0.2133,0.2138,0.2141,0.2156,0.2158,0.215,0.2148,0.2146,0.2143,0.2142,0.2141,0.214,0.2098,0.2098,0.2097,0,0,0,0,0,0,0.2026,0.2034,0.2101,0.207,0.2079,0.2109,0.2129,0.2134,0.2147,0.2146,0.2148,0.2166,0.2151,0.2148,0.2144,0.2142,0.214,0.2139,0.2099,0.2098,0.2098,0.2121,0,0,0,0,0,0,0.2023,0.2034,0.2045,0.2071,0.2081,0.2119,0.2128,0.2134,0.2151,0.2154,0.2155,0.2154,0.2151,0.2146,0.2143,0.214,0.2138,0.2099,0.2098,0.2098,0.212,0.2121,0.2122,0,0,0,0,0,0.202,0.2029,0.2046,0.2054,0.2097,0.2119,0.2123,0.2145,0.2151,0.2159,0.216,0.2154,0.2139,0.2145,0.2141,0.2137,0.2099,0.2099,0.2098,0.212,0.2121,0.2122,0,0,0,0,0,0,0.1985,0.2034,0.2053,0.2076,0.2102,0.2126,0.2133,0.2147,0.2154,0.2153,0.2152,0.2151,0.2148,0.2135,0.2141,0.2122,0.2117,0.2115,0.2135,0.2135,0.2136,0.214,0.2137,0,0,0,0,0,0.1985,0.2009,0.205,0.2066,0.2082,0.2108,0.2119,0.2134,0.2145,0.2151,0.2154,0.2147,0.2139,0.2133,0.2126,0.2112,0.213,0.2105,0.2106,0.2107,0.2106,0.2143,0.2148,0.2095,0.2095,0.2095,0,0,0.1973,0.2004,0.2016,0.206,0.2081,0.2092,0.2116,0.2134,0.2136,0.2144,0.2146,0.2152,0.2136,0.213,0.2126,0.212,0.2132,0.2106,0.2106,0.2105,0.2143,0.2148,0.2153,0.2094,0.2094,0.2095,0,0,0.1952,0.1993,0.2004,0.2027,0.2064,0.2081,0.2088,0.212,0.2132,0.2135,0.2143,0.2152,0.2133,0.2135,0.2127,0.2122,0.2138,0.2113,0.2116,0.2152,0.2158,0.2163,0.2202,0.2211,0.2109,0.2109,0.211,0,0.1934,0.1961,0.2007,0.202,0.2036,0.2075,0.2081,0.2093,0.2118,0.2133,0.2135,0.2145,0.2134,0.2135,0.2132,0.2124,0.2152,0.2118,0.2156,0.2161,0.2166,0.2205,0.2214,0.2111,0.211,0.211,0.211,0,0.1921,0.1944,0.195,0.1986,0.2007,0.2018,0.205,0.2072,0.209,0.211,0.2132,0.2135,0.2148,0.214,0.2129,0.2152,0.2165,0.216,0.2161,0.2173,0.2213,0.2222,0.2112,0.2112,0.2111,0.2111,0,0,0.1874,0.1931,0.1932,0.1957,0.1992,0.2015,0.2022,0.2057,0.2089,0.2102,0.2141,0.2124,0.2156,0.2149,0.2153,0.2171,0.2225,0.2177,0.2178,0.2227,0.2319,0.2331,0.2341,0.2238,0.2239,0.224,0.2339,0,0.1849,0.1875,0.1902,0.1922,0.1947,0.1988,0.2003,0.204,0.2077,0.2127,0.214,0.2176,0.2149,0.2177,0.2188,0.2228,0.2248,0.2199,0.2289,0.2292,0.231,0.2351,0.2158,0.2229,0.2347,0.2349,0.235,0,0.1828,0.1855,0.1873,0.1933,0.1947,0.1959,0.2027,0.2045,0.2112,0.2147,0.2187,0.2219,0.2253,0.2233,0.2294,0.2271,0.229,0.2309,0.2314,0.2321,0.2319,0.2232,0.2241,0.2365,0.2363,0.2362,0.2361,0,0.1804,0.1837,0.1859,0.1875,0.1937,0.1958,0.1989,0.2055,0.2111,0.2179,0.2246,0.2275,0.2331,0.2347,0.2382,0.2352,0.2461,0.2427,0.2451,0.2453,0.2302,0.2288,0.2465,0.2465,0.2465,0.2464,0.2464,0,0.1786,0.181,0.1856,0.1875,0.1921,0.1957,0.2023,0.2066,0.2155,0.2224,0.2265,0.2338,0.2366,0.2431,0.2425,0.2482,0.25,0.2466,0.2484,0.2305,0.2291,0.241,0.2402,0.2468,0.2467,0.2467,0.2466,0,0.179,0.1806,0.185,0.1901,0.192,0.1962,0.2062,0.2113,0.2195,0.2293,0.2326,0.2428,0.2501,0.2532,0.2585,0.2566,0.2599,0.2607,0.2402,0.2393,0.2551,0.2543,0.2646,0.2647,0.2648,0.2649,0.265,0,0.1812,0.1828,0.1876,0.19,0.193,0.1995,0.2038,0.2126,0.2187,0.2339,0.2384,0.2507,0.257,0.2677,0.2653,0.2671,0.2665,0.2505,0.2401,0.2566,0.2572,0.2562,0.2553,0.2208,0.2205,0.2203,0.2201,0,0.1856,0.1861,0.1887,0.1925,0.1964,0.2016,0.208,0.2143,0.2235,0.2328,0.2432,0.2504,0.2613,0.2553,0.2602,0.2572,0.2484,0.2461,0.2693,0.2204,0.2165,0.2167,0.217,0.218,0.2182,0.2183,0.2185,0.2185,0.1885,0.19,0.1905,0.194,0.1977,0.1994,0.2011,0.2081,0.2163,0.2232,0.2364,0.2384,0.2425,0.2403,0.2348,0.2298,0.2456,0.232,0.2322,0.2328,0.2271,0.2237,0.2255,0.2258,0.226,0.2262,0.2263,0,0.1886,0.1881,0.1917,0.1916,0.1912,0.1951,0.1998,0.1973,0.2003,0.2099,0.2159,0.2024,0.2037,0.2059,0.1969,0.2005,0.1926,0.191,0.1766,0.1792,0.1814,0.1723,0.1567,0.1564,0.1561,0.1559,0,0,0.1876,0.1863,0.1859,0.1822,0.1829,0.1776,0.1775,0.1755,0.1784,0.1768,0.1767,0.1926,0.202,0.1748,0.1743,0.1631,0.1682,0.1574,0.2143,0.2001,0.2018,0.208,0.1977,0,0,0,0,0]},{"header":{"parameterUnit":"m.s-1","parameterCategory":2,"la1":30.2991,"la2":30.254,"lo1":-89.0895,"lo2":-89.0444,"dy":0.0017,"dx":0.0017,"nx":28,"ny":28,"refTime":"2025-03-20T09:00:00:Z","depth":"2","parameterNumber":3,"parameterNumberName":"V-component_of_CURRENTS"},"data":[0,0,0,0,0,0,0,0,0,0,0,0,0,0,0,0,0,0,0,0,0,0,0,0,0,0,0,0,0,0,0,0,0,0,0,0,0,0,0,0,0,0,0,0,0,0,0,0,0,0,0,0,0,0,0,0,0,0,0.0023,0.0023,0,-0.0046,-0.0048,-0.0049,-0.0126,-0.0127,-0.0127,-0.0128,-0.0222,-0.0224,-0.0225,0,0,0,0,0,0,0,0,0,0,0,0,0,0.0038,0.0038,0.0023,0.0023,0.0022,-0.0046,-0.0048,-0.0049,-0.0126,-0.0127,-0.0128,-0.0129,-0.0221,-0.0223,-0.0226,0,0,0,0,0,0,0,0,0,0,0,0,0,0.0003,0.0038,0.0024,-0.0022,-0.0026,-0.0046,-0.0048,-0.0049,-0.0126,-0.0127,-0.0128,-0.0129,-0.0221,-0.0223,-0.0226,-0.0218,0,0,-0.0234,-0.0235,0,0,0,0,0,0,0,0,0.0005,0.0002,-0.0014,-0.0019,-0.0024,-0.0076,-0.0077,-0.0106,-0.0125,-0.0092,-0.0128,-0.013,-0.0172,-0.0179,-0.0194,-0.0223,-0.0227,-0.0234,-0.0236,-0.0237,-0.0238,0,0,0,0,0,0,0,0.0007,0.0004,-0.0008,-0.0015,-0.002,-0.0056,-0.0062,-0.0083,-0.0127,-0.0095,-0.0099,-0.0101,-0.0175,-0.0191,-0.0197,-0.0228,-0.0234,-0.0236,-0.0238,-0.0239,-0.0281,-0.028,0,0,0,0,0,0,0.0028,0.0007,-0.0006,-0.001,-0.0008,-0.0055,-0.0062,-0.0061,-0.0127,-0.0137,-0.01,-0.0104,-0.0186,-0.0194,-0.02,-0.0208,-0.0237,-0.0239,-0.0241,-0.0281,-0.0281,-0.028,0,0,0,0,0,0,0.0028,0.0027,-0.0003,-0.0001,-0.0006,-0.0053,-0.0051,-0.0061,-0.0082,-0.013,-0.0142,-0.0111,-0.0187,-0.0197,-0.0221,-0.0212,-0.024,-0.0243,-0.0282,-0.0281,-0.028,-0.0215,0,0,0,0,0,0,0.0029,0.0028,0.0033,0.0001,-0.0006,-0.001,-0.005,-0.0062,-0.0079,-0.0086,-0.0142,-0.0153,-0.0189,-0.0217,-0.0223,-0.0216,-0.0245,-0.0282,-0.0282,-0.0281,-0.0217,-0.0212,-0.0207,0,0,0,0,0,0.003,0.0047,0.0034,0.0032,0.0004,-0.0009,-0.0016,-0.0057,-0.0078,-0.0081,-0.0122,-0.0151,-0.0216,-0.0218,-0.0226,-0.0219,-0.0283,-0.0282,-0.0281,-0.022,-0.0213,-0.0207,0,0,0,0,0,0,0.0057,0.004,0.0025,0.0036,0.0017,-0.0021,-0.0024,-0.005,-0.0084,-0.0092,-0.0144,-0.0156,-0.0176,-0.0203,-0.0204,-0.0229,-0.0254,-0.0255,-0.0205,-0.0199,-0.0194,-0.018,-0.0247,0,0,0,0,0,0.0068,0.0074,0.0051,0.0059,0.0053,0.0015,0.0004,-0.002,-0.0051,-0.0069,-0.0106,-0.0145,-0.0176,-0.0191,-0.0222,-0.023,-0.0262,-0.0232,-0.0226,-0.0222,-0.0216,-0.0257,-0.0255,-0.0277,-0.0277,-0.0277,0,0,0.0079,0.0073,0.0074,0.0065,0.0045,0.0046,0.0004,-0.0005,-0.0008,-0.0071,-0.0088,-0.0127,-0.0174,-0.019,-0.0201,-0.0213,-0.023,-0.022,-0.0216,-0.0212,-0.0256,-0.0254,-0.0252,-0.0276,-0.0276,-0.0276,0,0,0.0112,0.0102,0.0117,0.0107,0.0092,0.0071,0.0073,0.004,0.0019,0.0005,-0.0046,-0.0078,-0.0117,-0.0153,-0.0175,-0.0156,-0.0203,-0.0166,-0.0127,-0.0167,-0.0166,-0.0165,-0.0194,-0.0197,-0.0162,-0.0161,-0.0161,0,0.0126,0.0142,0.0119,0.0132,0.013,0.0088,0.0102,0.008,0.0043,0.003,0.001,-0.0059,-0.0099,-0.0127,-0.0125,-0.0144,-0.0173,-0.0146,-0.016,-0.016,-0.016,-0.0191,-0.0195,-0.0158,-0.0159,-0.0159,-0.0159,0,0.0167,0.0178,0.0188,0.019,0.0185,0.0191,0.0165,0.0153,0.0126,0.0099,0.0067,0.001,-0.0032,-0.0049,-0.0082,-0.0103,-0.0123,-0.015,-0.0174,-0.0154,-0.0188,-0.0193,-0.0153,-0.0155,-0.0156,-0.0156,0,0,0.0203,0.0215,0.0218,0.0229,0.0216,0.0219,0.0218,0.0203,0.0203,0.0159,0.015,0.0091,0.0053,0.0026,-0.0024,-0.0058,-0.0085,-0.0098,-0.0102,-0.0123,-0.0168,-0.0181,-0.0188,-0.0117,-0.0117,-0.0118,-0.0188,0,0.024,0.0281,0.0273,0.0305,0.0321,0.029,0.0295,0.0275,0.0248,0.023,0.0165,0.0139,0.0084,0.0065,0.0021,-0.0061,-0.0096,-0.0063,-0.0188,-0.0191,-0.0202,-0.0193,-0.0163,-0.0223,-0.0193,-0.0194,-0.0194,0,0.028,0.0303,0.0344,0.0364,0.0369,0.0379,0.0376,0.0375,0.0336,0.0314,0.0269,0.0219,0.016,0.0113,-0.0011,0.0012,-0.0069,-0.0132,-0.0137,-0.0175,-0.0213,-0.0241,-0.0233,-0.0203,-0.0202,-0.0202,-0.0201,0,0.0316,0.0352,0.0387,0.0394,0.0409,0.0417,0.0419,0.0396,0.041,0.0363,0.0367,0.0278,0.0244,0.0131,0.0001,-0.0007,-0.0133,-0.0165,-0.0251,-0.0253,-0.0265,-0.0266,-0.025,-0.0249,-0.0249,-0.0249,-0.0249,0,0.0354,0.0381,0.0407,0.0426,0.0472,0.0459,0.0497,0.048,0.0476,0.0503,0.0413,0.0414,0.0247,0.0158,0.0026,-0.0122,-0.0118,-0.0241,-0.0272,-0.024,-0.0239,-0.0254,-0.0253,-0.0252,-0.0251,-0.0251,-0.025,0,0.0378,0.0394,0.0444,0.0476,0.0489,0.0519,0.0563,0.0594,0.0572,0.0604,0.0598,0.0516,0.0395,0.0228,0.0044,-0.0078,-0.0226,-0.0281,-0.0225,-0.0249,-0.0325,-0.032,-0.0383,-0.0385,-0.0385,-0.0386,-0.0387,0,0.0387,0.0416,0.0487,0.0527,0.0542,0.0589,0.0631,0.0637,0.0683,0.0675,0.0705,0.06,0.0549,0.0274,0.0034,-0.0197,-0.023,-0.0322,-0.0337,-0.0314,-0.0339,-0.0333,-0.0327,-0.0326,-0.0326,-0.0326,-0.0326,0,0.041,0.0442,0.0492,0.0583,0.064,0.0713,0.0773,0.083,0.0846,0.0872,0.0888,0.0843,0.0581,0.0353,0.0029,-0.0129,-0.0285,-0.033,-0.0328,-0.0293,-0.0265,-0.0288,-0.0283,-0.0327,-0.0327,-0.0327,-0.0327,-0.0327,0.0433,0.0481,0.0563,0.0649,0.0726,0.083,0.0906,0.0975,0.1056,0.1104,0.1041,0.0972,0.0701,0.0294,0.0012,-0.0291,-0.0282,-0.0381,-0.0379,-0.0377,-0.0354,-0.0329,-0.0398,-0.0398,-0.0398,-0.0399,-0.0399,0,0.0469,0.0534,0.0622,0.0741,0.0846,0.0872,0.1005,0.1083,0.1191,0.1203,0.1207,0.0957,0.0678,0.0357,-0.0082,-0.0341,-0.0363,-0.0427,-0.039,-0.0387,-0.0385,-0.0361,-0.0408,-0.0409,-0.041,-0.0411,0,0,0.0492,0.0591,0.0648,0.0827,0.0912,0.1061,0.1149,0.1243,0.129,0.132,0.127,0.1167,0.0774,0.0462,0.0102,-0.0153,-0.0212,-0.0208,-0.0171,-0.0081,-0.0076,-0.0329,-0.0286,0,0,0,0,0]}],[{"header":{"parameterUnit":"m.s-1","parameterCategory":2,"la1":30.2991,"la2":30.254,"lo1":-89.0895,"lo2":-89.0444,"dy":0.0017,"dx":0.0017,"nx":28,"ny":28,"refTime":"2025-03-20T09:00:00:Z","depth":"4","parameterNumber":2,"parameterNumberName":"U-component_of_CURRENTS"},"data":[0,0,0,0,0,0,0,0,0,0,0,0,0,0,0,0,0,0,0,0,0,0,0,0,0,0,0,0,0,0,0,0,0,0,0,0,0,0,0,0,0,0,0,0,0,0,0,0,0,0,0,0,0,0,0,0,0,0,0.0911,0.0913,0,0.1001,0.1002,0.1002,0.1052,0.1053,0.1053,0.1054,0.1162,0.1164,0.1167,0,0,0,0,0,0,0,0,0,0,0,0,0,0.0875,0.0874,0.0911,0.0913,0.0914,0.1001,0.1002,0.1003,0.1052,0.1053,0.1053,0.1054,0.1161,0.1164,0.1167,0,0,0,0,0,0,0,0,0,0,0,0,0,0.0917,0.0874,0.0911,0.0952,0.0957,0.1001,0.1002,0.1003,0.1052,0.1053,0.1053,0.1054,0.116,0.1164,0.1167,0.1176,0,0,0.1178,0.118,0,0,0,0,0,0,0,0,0.0914,0.0917,0.0944,0.0949,0.0955,0.1019,0.1029,0.1063,0.1052,0.1012,0.1054,0.1054,0.1117,0.1125,0.1135,0.1181,0.1186,0.1179,0.1181,0.1183,0.1184,0,0,0,0,0,0,0,0.0911,0.0915,0.0943,0.0946,0.0952,0.0997,0.1003,0.1036,0.1058,0.1016,0.102,0.1035,0.112,0.1131,0.1138,0.1188,0.1179,0.1182,0.1184,0.1186,0.1359,0.1361,0,0,0,0,0,0,0.0901,0.0911,0.0941,0.0946,0.0939,0.0997,0.1003,0.0995,0.1057,0.1068,0.1035,0.1038,0.1125,0.1134,0.1142,0.1244,0.1183,0.1186,0.1188,0.1357,0.1359,0.1362,0,0,0,0,0,0,0.0899,0.0902,0.0937,0.0935,0.0943,0.0997,0.0987,0.0996,0.1048,0.1072,0.1083,0.1081,0.1125,0.1137,0.1208,0.1245,0.1188,0.1191,0.1354,0.1357,0.1361,0.1392,0,0,0,0,0,0,0.0897,0.09,0.0919,0.0933,0.0943,0.099,0.0987,0.0998,0.1055,0.106,0.1115,0.1123,0.1127,0.1202,0.1211,0.1249,0.1194,0.1351,0.1355,0.136,0.1388,0.1397,0.1404,0,0,0,0,0,0.0895,0.0917,0.0918,0.0924,0.0957,0.0992,0.1002,0.104,0.1057,0.1087,0.1126,0.1124,0.1237,0.1207,0.1217,0.1257,0.1348,0.1354,0.1359,0.1385,0.1395,0.1404,0,0,0,0,0,0,0.0915,0.0924,0.0927,0.095,0.098,0.1002,0.104,0.1064,0.1118,0.1131,0.1152,0.1164,0.1239,0.1251,0.1217,0.1324,0.1294,0.1301,0.131,0.132,0.1327,0.1314,0.1197,0,0,0,0,0,0.0924,0.0942,0.0954,0.098,0.099,0.102,0.1051,0.1073,0.1111,0.1137,0.1176,0.122,0.1263,0.1294,0.133,0.1389,0.1394,0.1425,0.1433,0.1439,0.1438,0.1472,0.1481,0.138,0.138,0.1379,0,0,0.0939,0.0951,0.0961,0.0988,0.1007,0.1037,0.104,0.1088,0.1129,0.114,0.122,0.1251,0.1286,0.1348,0.1384,0.1368,0.1476,0.1446,0.145,0.1446,0.1478,0.1488,0.1496,0.1383,0.1383,0.1382,0,0,0.0969,0.0981,0.1001,0.1026,0.1066,0.1081,0.1103,0.1142,0.1177,0.1249,0.1265,0.1318,0.1396,0.1416,0.1437,0.1513,0.1515,0.1541,0.1569,0.1602,0.161,0.1617,0.1649,0.1659,0.1545,0.1545,0.1545,0,0.0998,0.1008,0.102,0.1048,0.1077,0.1104,0.1136,0.1173,0.1241,0.1273,0.1285,0.1395,0.1421,0.1485,0.151,0.1528,0.155,0.1525,0.1609,0.1616,0.1622,0.1654,0.1663,0.1547,0.1547,0.1546,0.1546,0,0.1024,0.1054,0.1071,0.1104,0.1141,0.1176,0.1212,0.1264,0.1309,0.1343,0.1429,0.1464,0.1526,0.1547,0.1553,0.162,0.1624,0.161,0.1575,0.1634,0.1664,0.1674,0.155,0.1549,0.1549,0.1548,0,0,0.1034,0.1079,0.1091,0.1114,0.1172,0.1199,0.1266,0.1323,0.1374,0.1441,0.1508,0.1573,0.1593,0.1618,0.1635,0.1662,0.1726,0.1662,0.1663,0.1677,0.1812,0.171,0.171,0.1731,0.1733,0.1734,0.1818,0,0.1056,0.1106,0.113,0.1195,0.1217,0.1263,0.1322,0.1385,0.1442,0.1516,0.1556,0.163,0.1621,0.1661,0.1686,0.1723,0.1752,0.1705,0.1768,0.177,0.1657,0.1718,0.174,0.1825,0.1828,0.1829,0.183,0,0.107,0.1103,0.1156,0.1225,0.124,0.1292,0.1379,0.1437,0.153,0.1579,0.1646,0.1687,0.1755,0.1732,0.181,0.1788,0.1805,0.1818,0.1821,0.1716,0.1685,0.1755,0.1847,0.1846,0.1845,0.1844,0.1842,0,0.1051,0.1125,0.1166,0.1191,0.127,0.1316,0.137,0.1461,0.1522,0.1626,0.169,0.1758,0.1823,0.1849,0.1888,0.1864,0.1963,0.1929,0.185,0.1844,0.1893,0.1885,0.1973,0.1973,0.1973,0.1973,0.1972,0,0.105,0.1089,0.1165,0.1187,0.125,0.1316,0.1398,0.1461,0.1571,0.1643,0.1724,0.179,0.1859,0.1923,0.1924,0.1925,0.1997,0.1864,0.1859,0.1909,0.1901,0.1901,0.1891,0.1976,0.1975,0.1974,0.1974,0,0.1008,0.1062,0.1109,0.12,0.1238,0.1281,0.1409,0.1462,0.1582,0.1682,0.1727,0.1853,0.1925,0.1977,0.2035,0.1976,0.1979,0.1959,0.2031,0.2028,0.1829,0.182,0.187,0.1868,0.1865,0.1863,0.1861,0,0.0978,0.1001,0.1099,0.1134,0.1177,0.1263,0.1318,0.1448,0.1512,0.1699,0.1739,0.187,0.193,0.1938,0.1989,0.1993,0.1962,0.1956,0.186,0.1828,0.1819,0.1814,0.181,0.1857,0.1857,0.1856,0.1856,0,0.0918,0.0965,0.1006,0.1074,0.1138,0.1208,0.1308,0.1352,0.1503,0.1625,0.171,0.1757,0.1841,0.1869,0.1901,0.1891,0.195,0.1929,0.1933,0.1842,0.1813,0.1805,0.1803,0.1847,0.1848,0.1849,0.185,0,0.0876,0.0885,0.0951,0.1007,0.1087,0.1145,0.1201,0.1287,0.1372,0.157,0.1589,0.1717,0.1823,0.182,0.1843,0.1835,0.179,0.1715,0.1728,0.1738,0.1653,0.1594,0.1564,0,0,0,0,0,0.0827,0.0842,0.0882,0.0946,0.1023,0.1078,0.1194,0.1256,0.14,0.1416,0.1505,0.1566,0.1618,0.1683,0.1645,0.178,0.1796,0.1729,0.1715,0.18,0.181,0.172,0,0,0,0,0,0,0.0802,0.0835,0.0854,0.0895,0.093,0.1011,0.1083,0.1174,0.1196,0.1336,0.1368,0.1471,0.1538,0.1619,0.1615,0.1633,0.1593,0.1804,0.18,0.1794,0.1803,0.1811,0.1722,0,0,0,0,0]},{"header":{"parameterUnit":"m.s-1","parameterCategory":2,"la1":30.2991,"la2":30.254,"lo1":-89.0895,"lo2":-89.0444,"dy":0.0017,"dx":0.0017,"nx":28,"ny":28,"refTime":"2025-03-20T09:00:00:Z","depth":"4","parameterNumber":3,"parameterNumberName":"V-component_of_CURRENTS"},"data":[0,0,0,0,0,0,0,0,0,0,0,0,0,0,0,0,0,0,0,0,0,0,0,0,0,0,0,0,0,0,0,0,0,0,0,0,0,0,0,0,0,0,0,0,0,0,0,0,0,0,0,0,0,0,0,0,0,0,0.0352,0.0352,0,0.0305,0.0304,0.0303,0.0293,0.0294,0.0295,0.0295,0.0184,0.0181,0.0177,0,0,0,0,0,0,0,0,0,0,0,0,0,0.0327,0.0327,0.0352,0.0352,0.0352,0.0305,0.0304,0.0303,0.0293,0.0294,0.0295,0.0295,0.0185,0.0181,0.0177,0,0,0,0,0,0,0,0,0,0,0,0,0,0.0312,0.0328,0.0352,0.0343,0.0342,0.0305,0.0304,0.0303,0.0293,0.0294,0.0295,0.0296,0.0187,0.0182,0.0176,0.0125,0,0,0.016,0.0158,0,0,0,0,0,0,0,0,0.0313,0.0312,0.0345,0.0344,0.0343,0.0308,0.0254,0.0241,0.0293,0.0309,0.0295,0.0296,0.0221,0.0213,0.0199,0.012,0.0115,0.016,0.0156,0.0154,0.0153,0,0,0,0,0,0,0,0.0314,0.0314,0.033,0.0345,0.0343,0.0305,0.0304,0.0251,0.0257,0.0307,0.0307,0.0306,0.022,0.0204,0.0196,0.0113,0.016,0.0155,0.0152,0.015,-0.0014,-0.0015,0,0,0,0,0,0,0.033,0.0315,0.0332,0.0329,0.0333,0.0305,0.0304,0.0316,0.0259,0.0252,0.0305,0.0306,0.0212,0.0202,0.0192,0.014,0.0154,0.0149,0.0146,-0.0012,-0.0014,-0.0015,0,0,0,0,0,0,0.033,0.0333,0.0334,0.0322,0.0321,0.0306,0.0318,0.0315,0.0306,0.0259,0.025,0.0302,0.0213,0.0199,0.0148,0.0135,0.0147,0.0142,-0.0011,-0.0013,-0.0014,0.0027,0,0,0,0,0,0,0.033,0.0333,0.0345,0.0324,0.0322,0.0319,0.0317,0.0313,0.0306,0.0306,0.0252,0.0243,0.0213,0.0156,0.0142,0.0128,0.0138,-0.001,-0.0012,-0.0014,0.0027,0.0027,0.0026,0,0,0,0,0,0.0329,0.0343,0.0347,0.0348,0.034,0.0319,0.0313,0.0303,0.0305,0.0299,0.0262,0.0245,0.0133,0.0151,0.0135,0.0119,-0.0008,-0.0011,-0.0014,0.0027,0.0027,0.0026,0,0,0,0,0,0,0.0335,0.0343,0.0346,0.0362,0.0346,0.0319,0.0314,0.0305,0.0271,0.0271,0.0228,0.0215,0.0165,0.013,0.0152,0.0063,0.0059,0.0053,0.0095,0.0094,0.0094,0.0122,0.0133,0,0,0,0,0,0.0344,0.0358,0.035,0.0359,0.0357,0.0335,0.0326,0.0317,0.0287,0.0275,0.0236,0.0188,0.0138,0.0111,0.0062,0.0011,-0.0006,-0.0011,-0.0011,-0.0011,-0.0001,-0.0036,-0.0037,-0.0024,-0.0024,-0.0023,0,0,0.0347,0.0354,0.0361,0.0361,0.035,0.0338,0.0332,0.032,0.0305,0.0264,0.0227,0.0184,0.0124,0.0072,0.0046,0.0045,-0.0026,-0.0014,-0.0013,-0.0003,-0.0039,-0.004,-0.0041,-0.0025,-0.0025,-0.0025,0,0,0.0351,0.0368,0.0378,0.0367,0.0358,0.0343,0.0343,0.0316,0.0303,0.0259,0.0227,0.0183,0.0103,0.0065,0.0033,-0.0002,-0.0025,-0.0025,-0.0004,-0.0039,-0.0039,-0.004,-0.0062,-0.0065,-0.0025,-0.0025,-0.0025,0,0.0354,0.0371,0.0372,0.037,0.0368,0.0348,0.0346,0.0319,0.0275,0.0266,0.0253,0.0152,0.0101,0.0046,0.0034,-0.0,-0.0018,0.0007,-0.0036,-0.0037,-0.0038,-0.0061,-0.0065,-0.0023,-0.0023,-0.0024,-0.0024,0,0.0358,0.0371,0.0373,0.0373,0.0364,0.0359,0.0334,0.0316,0.0298,0.0274,0.0225,0.0158,0.0108,0.0074,0.004,-0.0001,-0.001,-0.0027,-0.0025,-0.0036,-0.0061,-0.0065,-0.0021,-0.0021,-0.0022,-0.0022,0,0,0.0369,0.0378,0.038,0.0392,0.0372,0.0371,0.0344,0.0325,0.0325,0.0267,0.0259,0.0164,0.0147,0.0109,0.0061,0.0024,-0.0009,-0.0002,-0.0005,-0.0006,-0.0075,-0.007,-0.0075,-0.0031,-0.0031,-0.0032,-0.0086,0,0.0375,0.0392,0.0386,0.0395,0.0406,0.0386,0.0371,0.0349,0.0323,0.0304,0.0241,0.0207,0.0153,0.0137,0.0089,0.0017,-0.002,0.0008,-0.008,-0.0082,-0.0061,-0.008,-0.0034,-0.009,-0.0091,-0.0092,-0.0092,0,0.0383,0.0399,0.0419,0.0438,0.0442,0.0438,0.0441,0.0422,0.0383,0.0366,0.0322,0.0279,0.0211,0.0173,0.0055,0.0077,0.0007,-0.005,-0.0053,-0.0063,-0.0086,-0.008,-0.0101,-0.01,-0.01,-0.0099,-0.0099,0,0.0413,0.0425,0.0454,0.0456,0.0463,0.0472,0.047,0.0445,0.0452,0.041,0.0414,0.0327,0.0294,0.0193,0.0069,0.0065,-0.0054,-0.0075,-0.0136,-0.0136,-0.0139,-0.0138,-0.0152,-0.0152,-0.0152,-0.0152,-0.0152,0,0.043,0.0456,0.0476,0.0493,0.0534,0.0517,0.0553,0.0533,0.0523,0.0535,0.0456,0.0444,0.0298,0.0211,0.0093,-0.0033,-0.0038,-0.0129,-0.0151,-0.0123,-0.0119,-0.0142,-0.014,-0.0154,-0.0153,-0.0153,-0.0153,0,0.0462,0.0472,0.0515,0.0539,0.0554,0.0583,0.0619,0.0639,0.0618,0.0631,0.0624,0.0534,0.0417,0.0269,0.0103,0.0011,-0.0118,-0.0163,-0.0111,-0.013,-0.018,-0.0176,-0.0225,-0.0226,-0.0226,-0.0226,-0.0226,0,0.0481,0.0507,0.0562,0.0596,0.0613,0.0658,0.0689,0.0687,0.0708,0.0683,0.069,0.0592,0.0512,0.029,0.0124,-0.0088,-0.0126,-0.0185,-0.0195,-0.0172,-0.0189,-0.0184,-0.0179,-0.0227,-0.0227,-0.0227,-0.0227,0,0.0517,0.0542,0.0577,0.0649,0.0697,0.0753,0.0793,0.0818,0.0809,0.0801,0.0746,0.0624,0.0492,0.0302,0.0136,-0.0022,-0.0142,-0.0188,-0.0189,-0.0199,-0.0174,-0.019,-0.0185,-0.0228,-0.0228,-0.0228,-0.0228,0,0.0548,0.0581,0.0629,0.0693,0.076,0.0815,0.0838,0.0852,0.0867,0.0829,0.081,0.0653,0.0562,0.0337,0.0181,0.003,-0.0011,-0.006,-0.0068,-0.0069,-0.0015,0.0039,0.0036,0,0,0,0,0,0.0565,0.0601,0.0665,0.073,0.08,0.0839,0.089,0.0902,0.0901,0.0871,0.084,0.0712,0.0479,0.0377,0.0227,0.017,-0.0039,-0.0009,-0.0099,-0.0233,-0.0232,-0.0196,0,0,0,0,0,0,0.0575,0.0632,0.0663,0.075,0.0802,0.0875,0.0911,0.0912,0.0893,0.0868,0.0747,0.068,0.0454,0.0565,0.0226,0.018,0.0103,-0.0119,-0.0122,-0.0234,-0.0233,-0.0232,-0.0195,0,0,0,0,0]}]]